[[[{"header":{"parameterUnit":"kt","parameterCategory":2,"dx":1,"dy":1,"la1":30.253999710083008,"la2":30.299108505249023,"lo1":-89.0895004272461,"lo2":-89.04439544677734,"nx":28,"ny":28,"refTime":"2022-10-17T21:00:00:Z","depth":0,"parameterNumber":1,"parameterNumberName":"U-component_of_WINDS"},"data":[2.3861,2.3911,2.3946,2.4021,2.4066,2.4123,2.4155,2.42,2.4245,2.4319,2.4368,2.4409,2.4469,2.4536,2.4592,2.4609,2.463,2.4623,2.4644,2.4642,2.4644,2.4646,2.4636,2.4627,2.4627,2.4641,2.4641,2.4641,2.386,2.3904,2.3954,2.4025,2.4068,2.4097,2.4157,2.4191,2.4241,2.4297,2.4347,2.4414,2.4472,2.4535,2.4597,2.4623,2.464,2.4638,2.4636,2.4645,2.4644,2.4633,2.4623,2.4623,2.4623,2.4623,2.4623,2.4623,2.3869,2.3898,2.3961,2.4015,2.4061,2.4108,2.4142,2.4192,2.424,2.4308,2.4341,2.4399,2.4461,2.4553,2.4592,2.4639,2.4648,2.4656,2.4658,2.4659,2.4656,2.4633,2.4651,2.4652,2.4652,2.4652,2.4652,0,2.3886,2.3913,2.3962,2.4022,2.4063,2.4113,2.4164,2.4186,2.4256,2.4293,2.4351,2.439,2.4467,2.4525,2.4591,2.463,2.4662,2.467,2.4676,2.466,2.4639,2.4651,2.4649,2.4668,2.4668,2.4668,2.4669,2.4669,2.3897,2.3926,2.4008,2.4038,2.4075,2.4122,2.4157,2.4216,2.4251,2.4323,2.4346,2.4405,2.4454,2.4541,2.4597,2.4655,2.4671,2.4675,2.468,2.4665,2.4672,2.4669,2.4673,2.4672,2.4671,2.4671,2.4671,0,2.39,2.3957,2.4012,2.4091,2.4111,2.4139,2.4207,2.4238,2.4281,2.433,2.4345,2.4413,2.4469,2.4525,2.4599,2.4627,2.4675,2.4689,2.4655,2.466,2.467,2.4668,2.4689,2.4695,2.4706,2.4705,2.4705,0,2.3932,2.3967,2.4049,2.4077,2.4119,2.4177,2.4217,2.4258,2.4311,2.435,2.4396,2.4431,2.4497,2.4542,2.4582,2.4632,2.4646,2.467,2.468,2.4665,2.4662,2.4683,2.4683,2.4701,2.4701,2.4701,2.4701,0,2.393,2.4014,2.4062,2.409,2.4176,2.4198,2.4235,2.4294,2.4327,2.438,2.4403,2.446,2.4491,2.4535,2.4587,2.4588,2.4648,2.4661,2.4673,2.4671,2.4681,2.468,2.4686,2.4701,2.4701,2.4701,2.4701,0,2.3963,2.4014,2.4074,2.4148,2.4167,2.4198,2.4258,2.4298,2.4357,2.4385,2.4426,2.4462,2.4509,2.4518,2.4584,2.4571,2.46,2.4627,2.4629,2.4635,2.4643,2.4638,2.4639,2.4641,2.4644,2.4643,2.4643,0,2.3946,2.4021,2.407,2.4126,2.4168,2.4216,2.4252,2.4303,2.4342,2.4384,2.4428,2.4475,2.4493,2.4515,2.4541,2.4588,2.4604,2.4587,2.4648,2.4649,2.4631,2.4632,2.4617,2.4633,2.4638,2.4638,2.4639,0,2.3939,2.4043,2.4049,2.4083,2.4158,2.4193,2.4234,2.4293,2.4318,2.4369,2.4405,2.4472,2.4489,2.4525,2.4559,2.4583,2.4595,2.4597,2.4599,2.4595,2.4639,2.4626,2.4628,2.4613,2.4614,2.4615,2.4634,0,2.3978,2.4021,2.4041,2.4113,2.4148,2.4185,2.4243,2.4273,2.4303,2.4343,2.4397,2.4451,2.451,2.4526,2.4555,2.459,2.4593,2.4609,2.462,2.462,2.4628,2.4632,2.4604,2.4605,2.4605,2.4606,0,0,2.3947,2.4011,2.4062,2.4102,2.4135,2.4183,2.4218,2.4256,2.4329,2.4352,2.4359,2.446,2.4502,2.4561,2.4566,2.4589,2.4601,2.4597,2.462,2.4621,2.4622,2.463,2.4632,2.4607,2.4607,2.4607,2.4607,0,2.3972,2.4015,2.4048,2.409,2.4153,2.4193,2.4201,2.4271,2.4298,2.4349,2.4387,2.4426,2.4503,2.4545,2.4576,2.4593,2.4618,2.4606,2.4597,2.4623,2.4624,2.4625,2.4632,2.4634,2.4609,2.4608,2.4608,0,2.3976,2.4028,2.4049,2.4126,2.4167,2.4208,2.4235,2.4276,2.4307,2.4355,2.4405,2.4443,2.4502,2.4549,2.4572,2.4578,2.4631,2.4623,2.4621,2.4625,2.4653,2.4654,2.4654,2.4647,2.4647,2.4647,0,0,2.399,2.403,2.4102,2.4135,2.4159,2.4218,2.4245,2.4277,2.4329,2.4349,2.4397,2.4446,2.4493,2.4521,2.4567,2.461,2.4627,2.4626,2.4624,2.4622,2.4624,2.4653,2.4653,2.4647,2.4647,2.4647,0,0,2.3996,2.4081,2.4102,2.4147,2.4195,2.4268,2.4286,2.4312,2.4359,2.4361,2.4416,2.4431,2.4476,2.4511,2.4499,2.4572,2.4582,2.4585,2.4547,2.4546,2.4544,2.4534,2.4532,0,0,0,0,0,2.405,2.4071,2.4089,2.4105,2.42,2.4258,2.4271,2.4317,2.4324,2.4337,2.4382,2.4407,2.4517,2.4508,2.4523,2.4534,2.4642,2.4643,2.4643,2.4605,2.4603,2.4601,0,0,0,0,0,0,2.4057,2.4076,2.4088,2.4161,2.4183,2.4258,2.4279,2.4293,2.4323,2.4327,2.4397,2.4409,2.4449,2.4503,2.4516,2.4526,2.4528,2.4642,2.4643,2.4643,2.4604,2.4602,2.4601,0,0,0,0,0,2.4062,2.4078,2.4218,2.4161,2.418,2.4247,2.4279,2.429,2.4315,2.4382,2.4395,2.4347,2.4448,2.4462,2.4511,2.4519,2.452,2.4524,2.4643,2.4643,2.4644,2.4603,0,0,0,0,0,0,2.4067,2.4089,2.4223,2.4231,2.4156,2.4243,2.4259,2.4288,2.4369,2.4381,2.4334,2.4337,2.4447,2.4458,2.4469,2.4514,2.4513,2.4518,2.452,2.4643,2.4643,2.4644,0,0,0,0,0,0,2.4081,2.4095,2.4227,2.4218,2.4225,2.424,2.4254,2.4302,2.4369,2.4316,2.4321,2.4334,2.4432,2.4456,2.4464,2.4537,2.4508,2.4512,2.4515,2.4517,2.4643,2.4644,0,0,0,0,0,0,2.4088,2.41,2.4217,2.4222,2.4228,2.4316,2.4284,2.4378,2.4362,2.4312,2.4361,2.4361,2.4428,2.4438,2.4461,2.453,2.4536,2.4508,2.4511,2.4513,2.4514,0,0,0,0,0,0,0,2.4093,2.4001,2.4179,2.4225,2.423,2.43,2.4302,2.4304,2.4362,2.4362,2.4361,2.4361,2.4482,2.4487,2.4492,2.4524,0,0,2.4507,2.4509,0,0,0,0,0,0,0,0,2.3997,2.4,2.4179,2.418,2.4182,2.4301,2.4302,2.4304,2.4362,2.4362,2.4361,2.4361,2.4484,2.4487,2.4491,0,0,0,0,0,0,0,0,0,0,0,0,0,0,0,2.4179,2.418,0,2.4301,2.4302,2.4304,2.4362,2.4362,2.4361,2.4361,2.4485,2.4488,2.4491,0,0,0,0,0,0,0,0,0,0,0,0,0,0,0,0,0,0,0,0,0,0,0,0,0,0,0,0,0,0,0,0,0,0,0,0,0,0,0,0,0,0,0,0,0,0,0,0,0,0,0,0,0,0,0,0,0,0,0,0,0,0,0,0,0,0,0,0,0]}],[{"header":{"parameterUnit":"kt","parameterCategory":2,"dx":1,"dy":1,"la1":30.253999710083008,"la2":30.299108505249023,"lo1":-89.0895004272461,"lo2":-89.04439544677734,"nx":28,"ny":28,"refTime":"2022-10-17T21:00:00:Z","depth":0,"parameterNumber":2,"parameterNumberName":"V-component_of_WINDS"},"data":[-15.9585,-15.9841,-15.9855,-16.0151,-16.0211,-16.0414,-16.049,-16.0587,-16.0666,-16.0905,-16.1043,-16.1075,-16.1153,-16.1315,-16.1461,-16.147,-16.1531,-16.1617,-16.1612,-16.1227,-16.1174,-16.1123,-16.1065,-16.163,-16.1631,-16.201,-16.2014,-16.2016,-15.9308,-15.9373,-15.9533,-15.9695,-15.9832,-15.9759,-15.9879,-15.9996,-16.0177,-16.0275,-16.0411,-16.0619,-16.0782,-16.0829,-16.0986,-16.11,-16.1071,-16.1142,-16.1133,-16.1146,-16.0735,-16.0673,-16.1164,-16.1164,-16.1164,-16.1163,-16.1163,-16.1163,-15.8807,-15.896,-15.9065,-15.9238,-15.9322,-15.9429,-15.9574,-15.9612,-15.9764,-15.9933,-15.991,-16.0112,-16.0207,-16.0395,-16.0458,-16.0613,-16.0534,-16.0611,-16.0631,-16.0651,-16.0674,-16.0129,-16.0639,-16.0637,-16.0636,-16.0635,-16.0634,0,-15.8443,-15.8443,-15.8595,-15.8753,-15.8879,-15.8999,-15.911,-15.9199,-15.9191,-15.9316,-15.9497,-15.9601,-15.9805,-15.9972,-16.0117,-16.0165,-16.0093,-16.0085,-16.0139,-16.0154,-16.0152,-16.0157,-15.9487,-16.0069,-16.0064,-16.0061,-16.0058,-16.0056,-15.7939,-15.8114,-15.8226,-15.8332,-15.8395,-15.8564,-15.8666,-15.8646,-15.8754,-15.8883,-15.9015,-15.9183,-15.9316,-15.9597,-15.9629,-15.9778,-15.9744,-15.9966,-15.9765,-15.9775,-15.9748,-15.9738,-15.9755,-16.0005,-16.0011,-16.0017,-16.0021,0,-15.7654,-15.7668,-15.7942,-15.8032,-15.806,-15.8243,-15.8318,-15.8466,-15.8482,-15.8687,-15.8733,-15.8757,-15.8931,-15.8927,-15.9121,-15.9113,-15.941,-15.9373,-15.938,-15.9372,-15.9571,-15.9553,-16.0216,-16.0301,-15.9716,-15.9721,-15.9726,0,-15.7228,-15.7457,-15.7464,-15.7622,-15.7876,-15.7849,-15.81,-15.8138,-15.8219,-15.838,-15.8299,-15.8451,-15.8421,-15.8571,-15.8559,-15.8801,-15.8836,-15.8844,-15.8838,-15.8852,-15.8851,-15.8904,-15.8877,-15.8815,-15.8812,-15.8809,-15.8806,0,-15.678,-15.705,-15.7307,-15.737,-15.7485,-15.7605,-15.7658,-15.7746,-15.7844,-15.7968,-15.8031,-15.8176,-15.8256,-15.8369,-15.8352,-15.8216,-15.8647,-15.8456,-15.8654,-15.8655,-15.8748,-15.8742,-15.9332,-15.8802,-15.8801,-15.88,-15.8799,0,-15.6436,-15.6569,-15.6938,-15.7033,-15.7103,-15.727,-15.7414,-15.7556,-15.7654,-15.7658,-15.7755,-15.7698,-15.7908,-15.772,-15.8008,-15.7837,-15.7919,-15.7945,-15.7959,-15.7976,-15.7765,-15.8099,-15.8662,-15.872,-15.7994,-15.7988,-15.7982,0,-15.5922,-15.6296,-15.6275,-15.6624,-15.6796,-15.6696,-15.6879,-15.6968,-15.6989,-15.7134,-15.7154,-15.7318,-15.7177,-15.7226,-15.737,-15.7396,-15.7619,-15.7365,-15.757,-15.7578,-15.755,-15.8068,-15.8153,-15.854,-15.7896,-15.7905,-15.7911,0,-15.5523,-15.5662,-15.5725,-15.5795,-15.5911,-15.6052,-15.6263,-15.642,-15.6519,-15.6625,-15.68,-15.7028,-15.6931,-15.7013,-15.698,-15.713,-15.7467,-15.7003,-15.7005,-15.7088,-15.7851,-15.7932,-15.7997,-15.7411,-15.7421,-15.743,-15.7843,0,-15.5003,-15.519,-15.5362,-15.5516,-15.5625,-15.5841,-15.5838,-15.5951,-15.5911,-15.5926,-15.6181,-15.6247,-15.6401,-15.6472,-15.6431,-15.6776,-15.6716,-15.6609,-15.6422,-15.6763,-15.6898,-15.6954,-15.6221,-15.6216,-15.6211,-15.6207,0,0,-15.4507,-15.4773,-15.474,-15.4945,-15.5034,-15.4923,-15.5155,-15.5227,-15.5375,-15.5438,-15.5335,-15.5666,-15.5723,-15.6031,-15.6137,-15.6198,-15.6258,-15.6138,-15.6601,-15.6645,-15.6685,-15.6831,-15.6889,-15.6199,-15.6197,-15.6196,-15.6194,0,-15.4316,-15.4385,-15.4615,-15.469,-15.48,-15.4805,-15.4861,-15.4947,-15.4966,-15.5215,-15.5115,-15.5265,-15.5528,-15.5603,-15.5674,-15.6103,-15.6016,-15.6149,-15.6384,-15.6554,-15.6604,-15.6648,-15.6802,-15.6857,-15.6183,-15.6183,-15.6184,0,-15.3923,-15.399,-15.41,-15.4298,-15.4366,-15.4543,-15.435,-15.4542,-15.4672,-15.4532,-15.478,-15.4815,-15.4911,-15.5202,-15.5332,-15.5241,-15.5796,-15.5617,-15.5647,-15.566,-15.5824,-15.5884,-15.5938,-15.523,-15.5227,-15.5224,0,0,-15.3758,-15.393,-15.399,-15.4256,-15.4307,-15.4316,-15.4408,-15.4376,-15.4468,-15.4505,-15.4547,-15.4638,-15.4789,-15.489,-15.5032,-15.5352,-15.5368,-15.5501,-15.5546,-15.5582,-15.5616,-15.579,-15.5849,-15.5212,-15.5212,-15.5211,0,0,-15.3676,-15.3759,-15.3703,-15.401,-15.4105,-15.4178,-15.4339,-15.4269,-15.4397,-15.437,-15.432,-15.4341,-15.4613,-15.4649,-15.4486,-15.4964,-15.4781,-15.4819,-15.4931,-15.4987,-15.5032,-15.5016,-15.4291,0,0,0,0,0,-15.3478,-15.3749,-15.3698,-15.3748,-15.3993,-15.4208,-15.4238,-15.4206,-15.4078,-15.4207,-15.4231,-15.4132,-15.4551,-15.4406,-15.4454,-15.4636,-15.5053,-15.5081,-15.5108,-15.5327,-15.5386,-15.5436,0,0,0,0,0,0,-15.3498,-15.3561,-15.369,-15.3776,-15.383,-15.4198,-15.3974,-15.3973,-15.4064,-15.4042,-15.4131,-15.4134,-15.4107,-15.4378,-15.4423,-15.4596,-15.4276,-15.5064,-15.5088,-15.511,-15.5347,-15.5396,-15.5437,0,0,0,0,0,-15.3514,-15.3564,-15.3966,-15.3771,-15.3819,-15.3841,-15.3964,-15.3961,-15.403,-15.4066,-15.4067,-15.3997,-15.4113,-15.4148,-15.4404,-15.4576,-15.4245,-15.4262,-15.508,-15.5099,-15.5115,-15.5371,0,0,0,0,0,0,-15.3525,-15.3561,-15.3974,-15.3987,-15.3666,-15.382,-15.3843,-15.3951,-15.4047,-15.4051,-15.3929,-15.3911,-15.4121,-15.4146,-15.4174,-15.4572,-15.422,-15.4237,-15.4247,-15.5094,-15.5109,-15.5122,0,0,0,0,0,0,-15.3533,-15.3573,-15.3981,-15.385,-15.3848,-15.38,-15.3821,-15.4032,-15.4049,-15.3904,-15.3891,-15.392,-15.4077,-15.4147,-15.4167,-15.4498,-15.42,-15.4217,-15.4228,-15.4235,-15.5106,-15.5118,0,0,0,0,0,0,-15.3549,-15.3583,-15.3846,-15.3845,-15.3842,-15.3986,-15.3985,-15.4236,-15.3943,-15.3901,-15.3915,-15.3903,-15.4081,-15.4101,-15.4164,-15.4486,-15.4495,-15.4201,-15.4212,-15.422,-15.4225,0,0,0,0,0,0,0,-15.3562,-15.3345,-15.3898,-15.3841,-15.3838,-15.4108,-15.4112,-15.4115,-15.394,-15.3929,-15.3918,-15.3908,-15.4108,-15.4125,-15.4143,-15.4477,0,0,-15.4199,-15.4207,0,0,0,0,0,0,0,0,-15.333,-15.3341,-15.3898,-15.3901,-15.3904,-15.4109,-15.4112,-15.4115,-15.3938,-15.3929,-15.3921,-15.3912,-15.4112,-15.4127,-15.4141,0,0,0,0,0,0,0,0,0,0,0,0,0,0,0,-15.3898,-15.3901,0,-15.4109,-15.4112,-15.4114,-15.3937,-15.393,-15.3922,-15.3915,-15.4116,-15.4128,-15.414,0,0,0,0,0,0,0,0,0,0,0,0,0,0,0,0,0,0,0,0,0,0,0,0,0,0,0,0,0,0,0,0,0,0,0,0,0,0,0,0,0,0,0,0,0,0,0,0,0,0,0,0,0,0,0,0,0,0,0,0,0,0,0,0,0,0,0,0,0]}]]]